Zurück zum Katalog

FREGAT R/B

AktivHEO
NORAD 52985·ROCKET BODY·🇷🇺 Russia

Gestartet Jul 7, 2022 von Plesetsk Cosmodrome

Loading…

Nächste Überflüge (nächste 24 Stunden)

TLE

AktuellSource: Space-Track

Epoche: Sep 14, 2026, 00:32 UTC

1 52985U 22075B   26257.02242545 -.00000058  00000-0  00000-0 0  9995
2 52985  64.2692 313.7098 0071892 119.6988 241.0911  2.08819176 31947

Verfolge FREGAT R/B in Echtzeit mit AllMySat

Download on the App Store